Location: Berg
(47.2344°N, 9.5296°E)
Time: 17:08:24
(UTC+00:00)

Cosmos 923 Rocket - Pass Details

Date: 24 January 2021
Orbit: 758 x 785 km, 74.0° (Epoch: 28 February)

Event Time Altitude Azimuth Distance (km) Brightness Sun altitude
Rises 17:27:32 0° 337° (NNW) 3,287 7.4 -12.8°
Reaches altitude 10° 17:29:56 10° 337° (NNW) 2,352 6.6 -13.2°
Maximum altitude 17:35:18 87° 249° (WSW) 790 4.1 -14.0°
Drops below altitude 10° 17:40:36 10° 161° (SSE) 2,322 6.4 -14.9°
Sets 17:42:58 0° 161° (SSE) 3,242 7.2 -15.3°
